Location: Maiden
(35.5760°N, 81.2120°W)
Time: 17:16:46
(UTC-04:00)

S3M - Pass Details

Date: 14 June 2018
Orbit: 950 x 1003 km, 83.0° (Epoch: 19 June)

Event Time Altitude Azimuth Distance (km) Brightness Sun altitude
Exits shadow 23:42:55 64° 169° (S) 1,088 3.9 -26.3°
Maximum altitude 23:43:57 83° 95° (E) 1,003 3.9 -26.4°
Drops below altitude 10° 23:50:20 10° 8° (N) 2,774 7.1 -27.0°
Sets 23:52:53 0° 8° (N) 3,731 7.9 -27.2°
